This is the latest recevied weather packets stored in our database for station/object WW5AH-9. If no packets are shown the sender has not sent any weather packets the latest 1 day(s).
| Time | Temp. | Humidity | Pressure | Rain* | Wind** | Luminosity | Snow |
|---|---|---|---|---|---|---|---|
| 1777989066 | 21.11° C | 86% | 1005.8 hPa | 0 mm | 0 m/s | 56 W/m² | - |
| 1777988762 | 21.11° C | 86% | 1005.7 hPa | 0 mm | 0.89 m/s, 148° | 62 W/m² | - |
| 1777988460 | 21.11° C | 86% | 1005.5 hPa | 0 mm | 0.89 m/s, 145° | 56 W/m² | - |
| 1777988156 | 21.11° C | 86% | 1005.5 hPa | 0 mm | 0.45 m/s, 159° | 64 W/m² | - |
| 1777987852 | 21.11° C | 86% | 1005.6 hPa | 0 mm | 1.79 m/s, 172° | 47 W/m² | - |
| 1777987549 | 20.56° C | 86% | 1005.5 hPa | 0 mm | 2.24 m/s, 184° | 57 W/m² | - |
| 1777987247 | 20.56° C | 86% | 1005.4 hPa | 0 mm | 0.45 m/s, 180° | 52 W/m² | - |
| 1777986943 | 20.56° C | 86% | 1005.7 hPa | 0 mm | 0.45 m/s, 233° | 44 W/m² | - |
| 1777986641 | 20.56° C | 86% | 1005.4 hPa | 0 mm | 1.34 m/s, 181° | 34 W/m² | - |
| 1777986339 | 20.56° C | 86% | 1005.4 hPa | 0 mm | 2.24 m/s, 154° | 25 W/m² | - |
| 1777986037 | 20.56° C | 85% | 1005.7 hPa | 0 mm | 3.58 m/s, 164° | 24 W/m² | - |
| 1777985733 | 20.56° C | 85% | 1005.4 hPa | 0 mm | 1.79 m/s, 185° | 22 W/m² | - |
| 1777985430 | 20.56° C | 85% | 1005.5 hPa | 0 mm | 0.89 m/s, 181° | 26 W/m² | - |
| 1777985127 | 20.56° C | 85% | 1005.3 hPa | 0 mm | 2.24 m/s, 223° | 22 W/m² | - |
| 1777984823 | 20.56° C | 85% | 1005.5 hPa | 0 mm | 3.13 m/s, 198° | 19 W/m² | - |
| 1777984520 | 20.56° C | 85% | 1005.5 hPa | 0 mm | 3.58 m/s, 160° | 14 W/m² | - |
| 1777984216 | 20.56° C | 85% | 1005.7 hPa | 0 mm | 1.34 m/s, 169° | 12 W/m² | - |
| 1777983913 | 20.56° C | 85% | 1005.3 hPa | 0 mm | 0.45 m/s, 196° | 12 W/m² | - |
| 1777983610 | 20.56° C | 85% | 1005.4 hPa | 0 mm | 1.79 m/s, 186° | 12 W/m² | - |
| 1777983306 | 20.56° C | 85% | 1005.4 hPa | 0 mm | 0.89 m/s, 145° | 10 W/m² | - |
| 1777983003 | 20.56° C | 85% | 1005.5 hPa | 0 mm | 1.34 m/s, 109° | 8 W/m² | - |
| 1777982699 | 20.56° C | 85% | 1005.3 hPa | 0 mm | 3.13 m/s, 177° | 5 W/m² | - |
| 1777982398 | 20.56° C | 84% | 1005.1 hPa | 0 mm | 0.89 m/s, 175° | 5 W/m² | - |
| 1777982094 | 20.56° C | 84% | 1005.3 hPa | 0 mm | 0.89 m/s, 133° | 4 W/m² | - |
| 1777981793 | 20.56° C | 84% | 1005.2 hPa | 0 mm | 0.45 m/s, 185° | 3 W/m² | - |
* Rain latest hour (hover to see other rain measurements)
** Current wind speed in m/s (hover to see current wind gust speed)